Regional Weather Roundup
Issued by NWS Grand Forks, ND

Home | Current Version | Previous Version | Graphics & Text | Print | Product List | Glossary On
Versions: 1 2 3 4 5 6 7 8 9 10 11 12 13 14 15 16 17 18 19 20 21 22 23 24 25 26 27 28 29 30 31 32 33 34 35 36 37 38 39 40 41 42 43 44 45 46 47 48 49 50
136
ASUS43 KFGF 071110
RWRFGF
PRAIRIE TO PINES  WEATHER ROUNDUP
NATIONAL WEATHER SERVICE EASTERN NORTH DAKOTA/GRAND FORKS ND
500 AM CST SUN FEB 07 2016

 **SATELLITE DATA USED TO AUGMENT SKY COVER AT AUTOMATED STATIONS**
 *****  WEATHER ACROSS EASTERN NORTH DAKOTA  *****

CITY           SKY/WX    TMP DP  RH WIND       PRES   REMARKS
GRAND FORKS    CLOUDY    36  31  82 NW21      29.51R
GRAND FRKS AFB CLOUDY    36  28  73 W26G37    29.50F
GRAND FRKS NWS   N/A     32 N/A N/A NW15        N/A  WCI  22
DEVILS LAKE    CLOUDY    33  26  75 W30G37    29.56F WCI  19
FARGO          CLOUDY    37  28  70 W22G32    29.57R
WAHPETON ARPT  CLOUDY    36  28  75 W22G28    29.63R
$$

 ***** WEATHER ACROSS CENTRAL AND WESTERN NORTH DAKOTA  *****

CITY           SKY/WX    TMP DP  RH WIND       PRES   REMARKS
BISMARCK       PTCLDY    38  24  57 W20G29    29.78F
MINOT          FLURRIES  37  26  64 W31G41    29.67F
JAMESTOWN      PTCLDY    36  22  56 NW28G39   29.64R
MINOT AFB      CLOUDY    35  31  86 W29G41    29.65S WCI  21
GARRISON         N/A     34  24  67 NW33G49   29.72F WCI  20
WILLISTON      LGT SNOW  32  26  78 NW28G39   29.85R WCI  18
DICKINSON      CLOUDY    33  16  49 W35G49    29.84R WCI  18
HETTINGER      CLEAR     32  18  56 W31G40    29.92F WCI  17
$$

 *****  OTHER AIRPORT OBSERVATIONS IN OUR AREA  *****

CITY           SKY/WX    TMP DP  RH WIND       PRES   REMARKS
WALHALLA       FAIR      36  36 100 W20G35    29.46S
GRAFTON AIRPOR LGT SNOW  34  34 100 W29G36    29.50R WCI  20
VALLEY CITY AR FLURRIES  36  25  64 NW33G43   29.61S
CANDO          NOT AVBL
CAVALIER APRT  PTSUNNY   36  32  87 W21G28    29.46S
GWINNER        FAIR      37  28  70 W23G31    29.66R
SHEYENNE NWR     N/A     38  26  61 NW16      29.95S
ROLLA          PTSUNNY   32  27  80 W24G33    29.54S WCI  19
 ***** THE ABOVE OBSERVATIONS ARE NON NWS ARE NOT QUALITY
       CONTROLLED AND MAY MIS-REPORT RAIN FOR SNOW...
$$

  *****  WEATHER ACROSS NORTHERN MINNESOTA  *****

CITY           SKY/WX    TMP DP  RH WIND       PRES   REMARKS
FLAG ISLAND    CLOUDY    30  28  93 SW3       29.33S
WARROAD        CLOUDY    34  30  86 W8        29.37R
ROSEAU         CLOUDY    34  28  80 W20       29.38R WCI  22
HALLOCK        LGT SNOW  34  32  93 NW7       29.45R
THF RVR FALLS  CLOUDY    34  30  86 W17       29.47R WCI  23
BAUDETTE       CLOUDY    35  30  82 W5        29.36S
WASKISH        LGT RAIN  34  34 100 SW10      29.40R
CROOKSTON      LGT SNOW  34  32  93 NW18      29.51R WCI  23
STEPHEN NDAWN    N/A     34  32  93 W14         N/A  WCI  24
GREENBUSH NDAW   N/A     32  30  93 NW12        N/A  WCI  23
$$
  *****  WEATHER ACROSS CENTRAL AND WEST MINNESOTA  *****

CITY           SKY/WX    TMP DP  RH WIND       PRES   REMARKS
FOSSTON        LGT SNOW  30  30 100 W21G26    29.48R WCI  17
BEMIDJI        CLOUDY    33  32  98 W12       29.43S FOG     WCI  24
PARK RAPIDS    LGT SNOW  34  32  92 W21       29.47R FOG     WCI  22
ELBOW LAKE     CLOUDY    35  29  79 NW18G28   29.62S HAZE    WCI  24
WADENA         MIX PCPN  32  30  93 W16G22    29.52S WCI  21
DETROIT LAKES  LGT SNOW  34  32  93 W21G30    29.54S WCI  22
MOORHEAD       CLOUDY    37  28  70 W25G31    29.58R
FERGUS FALLS   CLOUDY    36  32  87 W21       29.62S
MORRIS MN      MOCLDY    37  28  70 W25       29.64R
STAPLES        LGT RAIN  32  32 100 W18G24    29.53R WCI  20
$$
  *****  WEATHER ELSEWHERE ACROSS MINNESOTA  *****

CITY           SKY/WX    TMP DP  RH WIND       PRES   REMARKS
DULUTH         PTCLDY    31  28  89 SW13      29.47F WCI  21
INTRNTL FALLS  CLOUDY    34  32  92 S6        29.37F
ELY            CLOUDY    32  30  93 S7        29.44S
CLOQUET        CLOUDY    32  28  86 S9        29.48F WCI  24
WHEATON        PTCLDY    37  28  70 W20G26    29.68R
BRAINERD       CLOUDY    35  31  85 W17G25    29.50F WCI  25
HIBBING        LGT SNOW  30  29  96 VRB5      29.43F FOG
ALEXANDRIA     FLURRIES  35  29  78 W24G33    29.59S WCI  23
SAINT CLOUD    CLOUDY    37  32  82 W18       29.58F
MINNEAPOLIS    MOCLDY    33  27  78 SW7       29.64S
$$

  *****  WEATHER ACROSS SOUTH DAKOTA  *****

CITY           SKY/WX    TMP DP  RH WIND       PRES   REMARKS
SIOUX FALLS    CLEAR     35  25  66 W17       29.83S WCI  25
BROOKINGS      CLEAR     35  24  64 W29G38    29.76S WCI  22
WATERTOWN      CLEAR     32  23  69 W21       29.75R WCI  20
HURON          CLOUDY    36  27  69 W22       29.86S
SISSETON         N/A     38  24  57 NW31G41   29.66S
ABERDEEN       MOCLDY    38  24  57 W24G33    29.78R
MITCHELL       CLOUDY    37  27  67 W16       29.91S
PIERRE         CLOUDY    38  28  67 NW28G36   29.94R
MOBRIDGE       MOCLDY    38  26  62 W17G31    29.83F
RAPID CITY     CLEAR     36  14  40 NW29G40   30.06R
$$

  *****  SOME WEATHER IN NEARBY STATES *****

CITY           SKY/WX    TMP DP  RH WIND       PRES   REMARKS
GLASGOW MT     CLEAR     31  20  63 NW33G44   30.08R WCI  15
GREAT FALLS MT CLEAR     23  15  71 SW13      30.33R WCI  11
CHEYENNE WY    CLEAR     32  16  51 W15       30.14R WCI  22
SCOTTSBLUFF NE CLOUDY    31  20  63 W12       30.17R WCI  22
OMAHA NE       CLOUDY    36  27  69 NW16      29.94R
DES MOINES IA  CLOUDY    36  27  69 W12       29.86S
DAVENPORT IA   CLOUDY    38  28  67 SW15      29.85F
CHICAGO IL     CLOUDY    38  29  70 SW16      29.89F
EAU CLAIRE WI  MOCLDY    30  25  81 S8        29.64F WCI  22
LA CROSSE WI   CLOUDY    36  28  73 S10       29.71F
$$

  *****  SOME NATIONAL WEATHER *****

CITY           SKY/WX    TMP DP  RH WIND       PRES   REMARKS
LA GUARDIA NY  CLEAR     35  24  64 S3        30.19S
RALEIGH NC     CLOUDY    37  25  61 N5        30.12F
ATLANTA GA     PTCLDY    30  21  69 NW9       30.14R WCI  22
NEW ORLEANS LA CLEAR     40  33  76 W3        30.29S
OKLAHOMA CITY  CLEAR     29  25  85 S8        30.14F WCI  21
ALBUQUERQUE NM CLOUDY    34  14  43 N10       30.34F
SALT LAKE CITY PTCLDY    25  19  78 SE6       30.49S WCI  18
LOS ANGELES CA CLEAR     56  27  32 CALM      30.15F
BOISE ID       CLEAR     28  26  92 E3        30.52R FOG
SEATTLE WA     PTCLDY    37  33  85 NE6       30.53R
$$

*** WEATHER ACROSS MANITOBA...SASKATCHEWAN AND ONTARIO ***
                ***ONTARIO***

CITY           SKY/WX    TMP DP  RH WIND       PRES   REMARKS
GERALDTON      LGT SNOW   0  -6  78 E16       29.75F DRFTSNOWWCI -21
THUNDER BAY    LGT SNOW  27  27 100 NE10      29.56F WCI  17
SIOUX LOOKOUT  FLURRIES  16  12  86 E9G18     29.44F WCI   4
TORONTO        MOCLDY    28  23  80 S6        30.07F WCI  22
BIG TROUT LK   CLEAR    -20 -27  69 E5        29.90S WCI -33
PICKLE LAKE    FLURRIES  -2  -9  71 E14G21    29.66  WCI -21
DRYDEN         FLURRIES  23  21  93 E7        29.38S WCI  15
KENORA         LGT SNOW  30  30 100 SE6       29.33S WCI  24
$$
                *** MANITOBA***

CITY           SKY/WX    TMP DP  RH WIND       PRES   REMARKS
BRANDON        MOCLDY    32  28  86 NW20      29.51R WCI  20
DAUPHIN        CLOUDY    25  21  86 N29G35    29.58R FOG     WCI   8
ISLAND LAKE    NOT AVBL
PILOT MOUND      N/A     32  30  93 NW18G26     N/A  WCI  20
THE PAS        LGT SNOW   7   3  85 NW12      29.76R WCI  -9
THOMPSON       LGT SNOW  -9 -15  77 NE7       29.81R WCI -24
WINNIPEG       LGT SNOW  27  25  93 NW22      29.43R DRFTSNOWWCI  12
LYNN LAKE      FLURRIES  -8 -13  77 N5        29.81R WCI -19
CHURCHILL      CLOUDY   -17 -22  76 E6        30.13S WCI -31
$$
                ***SASKATCHEWAN***

CITY           SKY/WX    TMP DP  RH WIND       PRES   REMARKS
ESTEVAN        NOT AVBL
KINDERSLEY     PTCLDY    23  18  80 W16G23    30.11R WCI  10
LLOYDMINSTER   CLEAR     25  18  74 NW17      30.08R WCI  11
PRINCE ALBERT  FLURRIES  18  10  73 NW13G21   29.92R WCI   4
REGINA         FLURRIES  25  19  80 NW35G47   29.85R WCI   7
YORKTON        CLOUDY    25  18  74 N31G46    29.68R WCI   8
N. BATTLEFORD  CLEAR     27  19  74 NW22G29   30.05R WCI  12
LA RONGE       FLURRIES  12   7  79 NW15      29.93R WCI  -4
SASKATOON      MOCLDY    25  19  80 NW15      29.97R WCI  12
SWIFT CURRENT  PTCLDY    28  19  69 NW37G52   30.03R WCI  11
$$
NOTE: THESE ARE AUTOMATED STATIONS WITH LIMITED QUALITY CONTROL
      "FAIR" INDICATES FEW OR NO CLOUDS BELOW 12,000 FEET WITH NO
      SIGNIFICANT WEATHER AND/OR OBSTRUCTIONS TO VISIBILITY.
      SKY/WX - SKY CONDITION AND SIGNIFICANT WEATHER.
      TMP - AIR TEMPERATURE.    DP   - DEWPOINT TEMPERATURE.
      RH  - RELATIVE HUMIDITY.  PRES - PRESSURE.
      HX  - HEAT INDEX.         WCI  - WIND CHILL INDEX.
$




USA.gov is the U.S. government's official web portal to all federal, state and local government web resources and services.